{"data":{"norad_id":67186,"epoch":"2026-05-24T15:33:59.091840Z","epoch_age_seconds":112515,"freshness":"FRESH","line1":"1 67186U 25303Z   26144.64860060  .00023006  00000+0  84281-3 0  9994","line2":"2 67186  43.0008 241.6022 0001790 269.7889  90.2758 15.27584860 24359","mean_motion":15.2758486,"eccentricity":0.000179,"inclination_deg":43.0008,"raan_deg":241.6022,"arg_perigee_deg":269.7889,"mean_anomaly_deg":90.2758,"bstar":0.00084281,"rev_number":2435,"period_min":94.266448804684,"perigee_km":481.80639378358,"apogee_km":484.26269319614,"semimajor_km":6861.1715434899,"source":"CELESTRAK","updated_at":"2026-05-25T13:38:21.484715Z"}}